FW4487 Weather Reports


time (UTC)temp
C
wind
direction
speed
KPH
gust
KPH
rain 1hr
cm
rain 24hr
cm
rain mn
cm
humidity
%
barometer
mb
20200711173718 27 203 1.6 11.3 0.00 0.00 0.00 46 1015.5
20200711173216 27 239 1.6 11.3 0.00 0.00 0.00 46 1015.5
20200711170821 27 225 3.2 11.3 0.00 0.00 0.00 44 1015.6
20200711170320 27 250 3.2 11.3 0.00 0.00 0.00 45 1015.5
20200711163808 27 264 4.8 12.9 0.00 0.00 0.00 43 1015.6
20200711163304 27 274 3.2 12.9 0.00 0.00 0.00 43 1015.6
20200711160752 28 206 1.6 14.5 0.00 0.00 0.00 42 1015.7
20200711160253 27 214 3.2 14.5 0.00 0.00 0.00 45 1015.7
20200711153741 27 297 3.2 12.9 0.00 0.00 0.00 44 1015.9
20200711153241 27 280 4.8 12.9 0.00 0.00 0.00 42 1015.9
20200711150728 28 265 4.8 12.9 0.00 0.00 0.00 43 1016.0
20200711150225 28 277 3.2 11.3 0.00 0.00 0.00 42 1016.0
20200711143715 27 273 4.8 16.1 0.00 0.00 0.00 42 1015.9
20200711143214 27 328 6.4 16.1 0.00 0.00 0.00 40 1016.0
20200711140824 28 227 3.2 14.5 0.00 0.00 0.00 41 1016.1
20200711140324 28 276 3.2 14.5 0.00 0.00 0.00 42 1016.0
20200711133807 28 286 3.2 14.5 0.00 0.00 0.00 41 1016.1
20200711133307 28 216 3.2 14.5 0.00 0.00 0.00 42 1016.1
20200711130757 27 239 4.8 16.1 0.00 0.00 0.00 43 1016.2
20200711130255 27 243 8.0 16.1 0.00 0.00 0.00 40 1016.4
20200711123742 28 307 3.2 14.5 0.00 0.00 0.00 40 1016.3
20200711123242 28 241 4.8 19.3 0.00 0.00 0.00 43 1016.4
20200711120728 27 359 1.6 9.7 0.00 0.00 0.00 45 1016.2
20200711120231 27 208 3.2 19.3 0.00 0.00 0.00 48 1016.3
20200711113716 26 220 3.2 9.7 0.00 0.00 0.00 48 1016.4
20200711113216 26 227 0.0 9.7 0.00 0.00 0.00 53 1016.2
20200711110826 26 281 3.2 12.9 0.00 0.00 0.00 56 1016.1
20200711110319 26 308 1.6 4.8 0.00 0.00 0.00 59 1016.1
20200711103805 25 250 1.6 9.7 0.00 0.00 0.00 58 1016.0
20200711103307 26 104 3.2 9.7 0.00 0.00 0.00 60 1015.9
20200711100755 24 251 1.6 14.5 0.00 0.00 0.00 54 1015.7
20200711100253 23 265 3.2 14.5 0.00 0.00 0.00 55 1015.7
20200711093740 22 148 0.0 9.7 0.00 0.00 0.00 74 1015.7
20200711093242 22 68 1.6 9.7 0.00 0.00 0.00 75 1015.6
20200711090729 21 98 4.8 8.0 0.00 0.00 0.00 75 1015.7
20200711090228 22 116 3.2 8.0 0.00 0.00 0.00 74 1015.7
20200711083717 21 154 1.6 12.9 0.00 0.00 0.00 67 1015.7
20200711083310 21 136 3.2 12.9 0.00 0.00 0.00 61 1015.7
20200711080819 21 136 1.6 8.0 0.00 0.00 0.00 63 1015.7
20200711080320 21 136 1.6 4.8 0.00 0.00 0.00 62 1015.7
20200711073805 21 136 1.6 8.0 0.00 0.00 0.00 55 1015.5
20200711073305 21 136 1.6 14.5 0.00 0.00 0.00 55 1015.5
20200711070752 20 136 1.6 14.5 0.00 0.00 0.00 54 1015.3
20200711070251 20 136 3.2 12.9 0.00 0.00 0.00 54 1015.3
20200711063740 20 136 3.2 12.9 0.00 0.00 0.00 55 1015.2
20200711063240 20 136 3.2 12.9 0.00 0.00 0.00 55 1015.2
20200711060738 20 136 3.2 14.5 0.00 0.00 0.00 56 1015.0
20200711060229 20 136 4.8 14.5 0.00 0.00 0.00 56 1015.1
20200711053720 20 136 4.8 16.1 0.00 0.00 0.00 55 1014.9
20200711053216 20 136 3.2 14.5 0.00 0.00 0.00 55 1014.9
20200711050828 20 136 8.0 16.1 0.00 0.00 0.00 55 1014.6
20200711050320 20 136 3.2 19.3 0.00 0.00 0.00 56 1014.6
20200711043811 20 136 1.6 9.7 0.00 0.00 0.00 60 1014.7
20200711043308 20 136 1.6 12.9 0.00 0.00 0.00 60 1014.7
20200711040756 18 136 3.2 4.8 0.00 0.00 0.00 75 1014.9
20200711040252 18 136 0.0 8.0 0.00 0.00 0.00 75 1015.0
20200711033747 20 136 1.6 12.9 0.00 0.00 0.00 58 1015.2
20200711033241 20 136 1.6 12.9 0.00 0.00 0.00 58 1015.1
20200711030733 20 136 3.2 16.1 0.00 0.00 0.00 58 1015.2
20200711030229 20 136 3.2 12.9 0.00 0.00 0.00 59 1015.3
20200711023719 20 136 3.2 16.1 0.00 0.00 0.00 59 1015.2
20200711023215 20 136 4.8 19.3 0.00 0.00 0.00 59 1015.2
20200711020809 20 136 6.4 20.9 0.00 0.00 0.00 57 1015.3
20200711020308 20 136 8.0 20.9 0.00 0.00 0.00 58 1015.3
20200711013753 20 136 6.4 19.3 0.00 0.00 0.00 60 1015.6
20200711013250 20 136 3.2 22.5 0.00 0.00 0.00 60 1015.7
20200711010744 20 136 3.2 16.1 0.00 0.00 0.00 60 1016.0
20200711010235 20 136 1.6 8.0 0.00 0.00 0.00 61 1016.0
20200711003728 20 136 3.2 14.5 0.00 0.00 0.00 60 1016.1
20200711003222 20 136 3.2 19.3 0.00 0.00 0.00 60 1016.1
20200711000714 20 136 3.2 16.1 0.00 0.00 0.00 62 1016.1
20200711000211 20 136 4.8 19.3 0.00 0.00 0.00 61 1016.2
20200710233721 20 136 1.6 14.5 0.00 0.00 0.00 60 1016.4
20200710233217 20 136 4.8 14.5 0.00 0.00 0.00 59 1016.4
20200710230828 20 136 4.8 20.9 0.00 0.00 0.00 57 1016.4
20200710230325 20 136 4.8 20.9 0.00 0.00 0.00 57 1016.4
20200710223806 21 136 4.8 19.3 0.00 0.00 0.00 57 1016.4
20200710223256 21 136 4.8 19.3 0.00 0.00 0.00 57 1016.3
20200710193827 22 136 1.6 9.7 0.00 0.00 0.00 53 1015.7
20200710193328 22 136 1.6 9.7 0.00 0.00 0.00 53 1015.6
20200710190758 23 136 3.2 12.9 0.00 0.00 0.00 51 1015.4
20200710190257 23 135 1.6 9.7 0.00 0.00 0.00 50 1015.4
20200710183735 23 333 4.8 19.3 0.00 0.00 0.00 48 1015.5
20200710183232 23 335 3.2 14.5 0.00 0.00 0.00 48 1015.4
20200710180859 24 312 3.2 16.1 0.00 0.00 0.00 54 1015.3
20200710180353 24 313 3.2 16.1 0.00 0.00 0.00 52 1015.3